[[{"header":{"parameterUnit":"m.s-1","parameterCategory":1,"la1":30.2991,"la2":30.254,"lo1":-89.0895,"lo2":-89.0444,"dy":0.0017,"dx":0.0017,"nx":28,"ny":28,"refTime":"2025-08-07T09:00:00:Z","depth":0,"parameterNumber":2,"parameterNumberName":"U-component_of_WINDS"},"data":[0,0,0,0,0,0,0,0,0,0,0,0,0,0,0,0,0,0,0,0,0,0,0,0,0,0,0,0,0,0,0,0,0,0,0,0,0,0,0,0,0,0,0,0,0,0,0,0,0,0,0,0,0,0,0,0,0,0,-1.7924,-1.7924,0,-1.7931,-1.7931,-1.7932,-1.7849,-1.7847,-1.7845,-1.7843,-1.7851,-1.7853,-1.7855,0,0,0,0,0,0,0,0,0,0,0,0,0,-1.7839,-1.7841,-1.7924,-1.7924,-1.7924,-1.7931,-1.7931,-1.7932,-1.785,-1.7847,-1.7844,-1.7842,-1.785,-1.7853,-1.7856,0,0,0,0,0,0,0,0,0,0,0,0,0,-1.7864,-1.7842,-1.7924,-1.7884,-1.7881,-1.7931,-1.7931,-1.7932,-1.785,-1.7847,-1.7844,-1.7841,-1.7849,-1.7853,-1.7856,-1.7945,0,0,-1.7867,-1.7868,0,0,0,0,0,0,0,0,-1.7863,-1.7868,-1.789,-1.7887,-1.7883,-1.7886,-1.7904,-1.7936,-1.7851,-1.7862,-1.7843,-1.7839,-1.7865,-1.7867,-1.7876,-1.7945,-1.7946,-1.7867,-1.7869,-1.787,-1.7871,0,0,0,0,0,0,0,-1.7861,-1.7867,-1.7927,-1.789,-1.7886,-1.7866,-1.7866,-1.791,-1.7883,-1.7861,-1.7855,-1.7857,-1.7863,-1.7873,-1.7876,-1.7946,-1.7867,-1.787,-1.7872,-1.7873,-1.8089,-1.8092,0,0,0,0,0,0,-1.7865,-1.7866,-1.7927,-1.7927,-1.7865,-1.787,-1.787,-1.7889,-1.7882,-1.7878,-1.786,-1.7853,-1.7869,-1.7872,-1.7876,-1.798,-1.787,-1.7874,-1.7876,-1.8085,-1.8089,-1.8093,0,0,0,0,0,0,-1.7864,-1.7871,-1.7926,-1.7895,-1.79,-1.7875,-1.7897,-1.7891,-1.79,-1.7881,-1.7876,-1.7875,-1.7866,-1.7871,-1.7928,-1.7979,-1.7875,-1.7878,-1.8081,-1.8086,-1.8091,-1.8189,0,0,0,0,0,0,-1.7861,-1.7871,-1.7905,-1.7896,-1.7902,-1.7979,-1.79,-1.7893,-1.7907,-1.7898,-1.7894,-1.789,-1.7864,-1.7924,-1.7932,-1.7982,-1.7881,-1.8076,-1.8083,-1.809,-1.8181,-1.8197,-1.821,0,0,0,0,0,-1.7859,-1.7932,-1.7907,-1.7915,-1.7944,-1.7982,-1.7986,-1.7954,-1.7911,-1.7945,-1.7932,-1.789,-1.7972,-1.793,-1.7939,-1.799,-1.8073,-1.8081,-1.8089,-1.8174,-1.8194,-1.821,0,0,0,0,0,0,-1.7947,-1.793,-1.7902,-1.7975,-1.7981,-1.7968,-1.801,-1.7975,-1.7994,-1.7985,-1.7944,-1.7944,-1.8009,-1.8005,-1.7959,-1.8076,-1.8015,-1.8025,-1.8076,-1.8095,-1.8109,-1.8109,-1.7884,0,0,0,0,0,-1.7975,-1.8008,-1.7991,-1.8057,-1.8061,-1.8035,-1.8051,-1.8026,-1.803,-1.8032,-1.8024,-1.803,-1.8057,-1.8075,-1.8099,-1.8179,-1.8178,-1.8219,-1.8234,-1.8246,-1.8256,-1.8298,-1.8317,-1.812,-1.812,-1.812,0,0,-1.8034,-1.8028,-1.8051,-1.8075,-1.8076,-1.8111,-1.8038,-1.8078,-1.8103,-1.8038,-1.8092,-1.8086,-1.809,-1.816,-1.819,-1.8159,-1.831,-1.8257,-1.8266,-1.8269,-1.8309,-1.8327,-1.8344,-1.8126,-1.8125,-1.8124,0,0,-1.8157,-1.8157,-1.8211,-1.8214,-1.8218,-1.82,-1.8213,-1.8206,-1.82,-1.8253,-1.8205,-1.8235,-1.8282,-1.8287,-1.8295,-1.8421,-1.8383,-1.843,-1.8507,-1.8549,-1.8565,-1.8578,-1.8624,-1.864,-1.8439,-1.8439,-1.844,0,-1.823,-1.828,-1.8244,-1.8287,-1.8299,-1.8241,-1.8297,-1.8301,-1.8312,-1.8322,-1.8286,-1.8344,-1.8343,-1.8413,-1.8444,-1.8452,-1.8466,-1.843,-1.8565,-1.8579,-1.8591,-1.8634,-1.8651,-1.8445,-1.8444,-1.8444,-1.8443,0,-1.8369,-1.8405,-1.8448,-1.846,-1.8477,-1.8526,-1.8497,-1.8518,-1.8492,-1.8478,-1.8533,-1.8529,-1.8551,-1.8566,-1.854,-1.8633,-1.8613,-1.8572,-1.851,-1.8616,-1.8655,-1.8671,-1.8453,-1.8451,-1.8449,-1.8448,0,0,-1.855,-1.8541,-1.8557,-1.8562,-1.8561,-1.8588,-1.8635,-1.8656,-1.8675,-1.8684,-1.8723,-1.8764,-1.8726,-1.8736,-1.871,-1.8747,-1.8847,-1.8701,-1.8701,-1.8729,-1.8949,-1.8981,-1.9,-1.8822,-1.8825,-1.8827,-1.8949,0,-1.8671,-1.875,-1.8718,-1.88,-1.8833,-1.8778,-1.8818,-1.8822,-1.8811,-1.8837,-1.8823,-1.8853,-1.8801,-1.8806,-1.884,-1.8828,-1.8891,-1.8819,-1.8858,-1.8859,-1.8859,-1.9021,-1.9054,-1.9169,-1.8964,-1.8967,-1.8969,0,-1.8823,-1.8838,-1.8923,-1.8917,-1.8929,-1.8966,-1.8983,-1.9009,-1.9012,-1.9001,-1.9012,-1.8978,-1.9023,-1.896,-1.9022,-1.8974,-1.8987,-1.8984,-1.8987,-1.8991,-1.8921,-1.9029,-1.9205,-1.9223,-1.8993,-1.8991,-1.8989,0,-1.8947,-1.8989,-1.9045,-1.9051,-1.9045,-1.9072,-1.907,-1.907,-1.9085,-1.91,-1.9109,-1.9129,-1.9141,-1.9157,-1.9129,-1.9086,-1.9195,-1.913,-1.9188,-1.9189,-1.9214,-1.9213,-1.9396,-1.9222,-1.9221,-1.9221,-1.9221,0,-1.9086,-1.914,-1.9101,-1.9136,-1.9195,-1.9158,-1.9218,-1.921,-1.9211,-1.9243,-1.9197,-1.9228,-1.919,-1.9218,-1.9196,-1.9251,-1.9256,-1.9248,-1.9242,-1.9253,-1.9254,-1.9262,-1.9254,-1.9226,-1.9225,-1.9224,-1.9223,0,-1.9235,-1.9211,-1.9269,-1.9258,-1.9256,-1.9301,-1.9291,-1.9323,-1.9307,-1.9349,-1.9357,-1.9333,-1.9363,-1.9337,-1.9366,-1.9352,-1.9425,-1.9407,-1.9424,-1.9419,-1.9479,-1.9474,-1.9674,-1.9698,-1.9508,-1.951,-1.9511,0,-1.9326,-1.9366,-1.936,-1.9378,-1.938,-1.941,-1.9424,-1.939,-1.9407,-1.9414,-1.9445,-1.9471,-1.9491,-1.9542,-1.9527,-1.9549,-1.9532,-1.96,-1.9535,-1.9545,-1.9534,-1.9532,-1.9536,-1.9614,-1.9616,-1.9618,-1.962,0,-1.949,-1.9476,-1.9499,-1.9518,-1.9537,-1.9551,-1.9561,-1.9578,-1.9543,-1.9565,-1.9595,-1.961,-1.964,-1.9667,-1.9684,-1.9682,-1.9646,-1.964,-1.9655,-1.9667,-1.9675,-1.9672,-1.9461,-1.9636,-1.9634,-1.9633,-1.9632,-1.9632,-1.9613,-1.9646,-1.9647,-1.9674,-1.9678,-1.9688,-1.9718,-1.9706,-1.9731,-1.9752,-1.973,-1.9767,-1.9769,-1.9789,-1.9791,-1.982,-1.9791,-1.9812,-1.9818,-1.9824,-1.9833,-1.967,-1.9823,-1.9822,-1.9822,-1.9821,-1.9821,0,-1.9775,-1.9772,-1.9798,-1.9813,-1.9835,-1.9798,-1.9807,-1.9827,-1.986,-1.9865,-1.9885,-1.992,-1.9946,-1.9934,-1.9956,-1.9981,-1.9965,-1.9989,-1.9987,-1.9987,-1.9857,-1.9842,-2.0001,-2.0001,-2.0001,-2.0001,-2.0001,-2.0001,-1.9861,-1.9916,-1.9903,-1.9959,-1.9956,-1.9992,-2.0,-2.001,-2.0013,-2.0055,-2.0076,-2.0067,-2.0065,-2.0087,-2.0109,-2.0105,-2.0116,-2.0145,-2.0135,-2.0014,-1.9996,-1.9979,-1.9965,-2.0148,-2.0148,-2.0263,-2.0264,-2.0265]},{"header":{"parameterUnit":"m.s-1","parameterCategory":1,"la1":30.2991,"la2":30.254,"lo1":-89.0895,"lo2":-89.0444,"dy":0.0017,"dx":0.0017,"nx":28,"ny":28,"refTime":"2025-08-07T09:00:00:Z","depth":0,"parameterNumber":3,"parameterNumberName":"V-component_of_WINDS"},"data":[0,0,0,0,0,0,0,0,0,0,0,0,0,0,0,0,0,0,0,0,0,0,0,0,0,0,0,0,0,0,0,0,0,0,0,0,0,0,0,0,0,0,0,0,0,0,0,0,0,0,0,0,0,0,0,0,0,0,-1.9875,-1.9875,0,-1.9938,-1.9939,-1.9939,-1.9948,-1.9947,-1.9946,-1.9946,-2.0008,-2.001,-2.0012,0,0,0,0,0,0,0,0,0,0,0,0,0,-1.9758,-1.976,-1.9875,-1.9875,-1.9876,-1.9938,-1.9939,-1.994,-1.9948,-1.9947,-1.9946,-1.9946,-2.0007,-2.001,-2.0013,0,0,0,0,0,0,0,0,0,0,0,0,0,-1.9813,-1.9761,-1.9874,-1.9888,-1.989,-1.9938,-1.9939,-1.994,-1.9948,-1.9947,-1.9946,-1.9945,-2.0006,-2.001,-2.0013,-2.0051,0,0,-2.0023,-2.0025,0,0,0,0,0,0,0,0,-1.981,-1.9818,-1.9885,-1.9887,-1.9889,-1.9934,-1.992,-1.9977,-1.9948,-1.9926,-1.9946,-1.9945,-1.9984,-1.9989,-2.0003,-2.0054,-2.0057,-2.0023,-2.0025,-2.0027,-2.0028,0,0,0,0,0,0,0,-1.9806,-1.9815,-1.99,-1.9886,-1.9888,-1.9889,-1.9896,-1.9931,-1.9959,-1.9928,-1.9928,-1.9936,-1.9985,-2.0,-2.0004,-2.0058,-2.0023,-2.0026,-2.0028,-2.003,-2.0142,-2.0143,0,0,0,0,0,0,-1.98,-1.9812,-1.9898,-1.9901,-1.9847,-1.9892,-1.99,-1.992,-1.9959,-1.9964,-1.9936,-1.9936,-1.9994,-2.0,-2.0007,-2.0053,-2.0027,-2.003,-2.0032,-2.0141,-2.0143,-2.0144,0,0,0,0,0,0,-1.9798,-1.9808,-1.9895,-1.9857,-1.9868,-1.9895,-1.9918,-1.9922,-1.9937,-1.9965,-1.997,-1.9947,-1.9994,-2.0002,-2.004,-2.0055,-2.0031,-2.0034,-2.014,-2.0142,-2.0143,-2.0147,0,0,0,0,0,0,-1.9795,-1.9807,-1.9823,-1.9857,-1.987,-1.9928,-1.9919,-1.9924,-1.9943,-1.9943,-1.9976,-1.9981,-1.9994,-2.0035,-2.0043,-2.0059,-2.0037,-2.0139,-2.0141,-2.0143,-2.0146,-2.0148,-2.0151,0,0,0,0,0,-1.979,-1.9821,-1.9824,-1.9834,-1.989,-1.9929,-1.9937,-1.9952,-1.9944,-1.9959,-1.9978,-1.998,-2.0052,-2.0039,-2.0048,-2.0066,-2.0138,-2.014,-2.0143,-2.0144,-2.0148,-2.0151,0,0,0,0,0,0,-1.9787,-1.9826,-1.9829,-1.9872,-1.9897,-1.9931,-1.9951,-1.9955,-1.9982,-1.9981,-1.9998,-2.0005,-2.0042,-2.0058,-2.0042,-2.0104,-2.0094,-2.0099,-2.0093,-2.0096,-2.0099,-2.0094,-2.004,0,0,0,0,0,-1.9792,-1.9821,-1.9853,-1.9888,-1.99,-1.9923,-1.9941,-1.995,-1.9977,-1.9987,-2.0008,-2.0033,-2.0061,-2.008,-2.0107,-2.0148,-2.0155,-2.0164,-2.0167,-2.0169,-2.0172,-2.0193,-2.0198,-2.0151,-2.0151,-2.0151,0,0,-1.9801,-1.9826,-1.9843,-1.9888,-1.9908,-1.9937,-1.9932,-1.9963,-1.9984,-1.9992,-2.0029,-2.0045,-2.0074,-2.0113,-2.0131,-2.0127,-2.0187,-2.0172,-2.0173,-2.0175,-2.0196,-2.0201,-2.0204,-2.0153,-2.0152,-2.0152,0,0,-1.9832,-1.9854,-1.9885,-1.9906,-1.9938,-1.9953,-1.996,-1.9993,-2.0004,-2.0042,-2.0047,-2.0072,-2.0121,-2.0141,-2.0158,-2.0195,-2.0198,-2.0204,-2.0217,-2.0238,-2.0241,-2.0245,-2.0257,-2.0262,-2.0207,-2.0207,-2.0207,0,-1.9839,-1.9884,-1.99,-1.9931,-1.995,-1.9958,-1.9989,-2.0008,-2.0047,-2.0059,-2.0054,-2.0115,-2.0135,-2.0178,-2.0187,-2.0201,-2.0209,-2.02,-2.024,-2.0243,-2.0247,-2.0259,-2.0263,-2.0208,-2.0208,-2.0208,-2.0207,0,-1.989,-1.9921,-1.9942,-1.998,-2.0001,-2.0032,-2.0051,-2.0071,-2.0078,-2.0093,-2.013,-2.0155,-2.0187,-2.0198,-2.0206,-2.0242,-2.0239,-2.0237,-2.0227,-2.0251,-2.0263,-2.0267,-2.0208,-2.0208,-2.0208,-2.0208,0,0,-1.9922,-1.9968,-1.9975,-1.9992,-2.0027,-2.005,-2.0081,-2.0113,-2.0128,-2.0155,-2.0179,-2.022,-2.0218,-2.0237,-2.0247,-2.0265,-2.0291,-2.026,-2.0261,-2.0264,-2.0332,-2.0333,-2.0338,-2.0294,-2.0295,-2.0295,-2.0329,0,-1.9956,-2.0011,-2.0026,-2.0073,-2.01,-2.0108,-2.0135,-2.0158,-2.0173,-2.0198,-2.0214,-2.0242,-2.0238,-2.0249,-2.0267,-2.0284,-2.0305,-2.0282,-2.0316,-2.0317,-2.0307,-2.0344,-2.0345,-2.0376,-2.0334,-2.0335,-2.0335,0,-2.0004,-2.0031,-2.008,-2.0111,-2.0123,-2.0147,-2.0177,-2.0201,-2.0227,-2.0237,-2.0257,-2.0265,-2.0295,-2.0285,-2.0326,-2.031,-2.0324,-2.0335,-2.0336,-2.0339,-2.0327,-2.0347,-2.0386,-2.039,-2.0343,-2.0342,-2.0341,0,-2.002,-2.007,-2.0105,-2.0119,-2.0156,-2.0172,-2.0188,-2.0214,-2.0232,-2.0258,-2.0269,-2.0298,-2.0314,-2.0336,-2.035,-2.0341,-2.039,-2.0381,-2.0397,-2.0397,-2.0407,-2.0406,-2.0448,-2.0418,-2.0418,-2.0417,-2.0417,0,-2.0057,-2.0086,-2.0113,-2.0134,-2.0167,-2.0184,-2.0215,-2.0231,-2.0254,-2.0278,-2.0287,-2.0309,-2.0327,-2.0352,-2.0363,-2.0395,-2.0402,-2.041,-2.0412,-2.0408,-2.0407,-2.0418,-2.0415,-2.0419,-2.0418,-2.0418,-2.0418,0,-2.008,-2.01,-2.0139,-2.017,-2.0179,-2.0201,-2.0228,-2.0249,-2.0264,-2.0294,-2.0302,-2.0325,-2.0354,-2.0371,-2.0407,-2.0415,-2.045,-2.0452,-2.0441,-2.0442,-2.0457,-2.0455,-2.0506,-2.0514,-2.0479,-2.048,-2.048,0,-2.0102,-2.0125,-2.0159,-2.0176,-2.0192,-2.022,-2.0238,-2.0255,-2.0274,-2.0305,-2.0322,-2.0351,-2.0376,-2.0421,-2.0441,-2.0468,-2.047,-2.0487,-2.0475,-2.047,-2.0469,-2.0468,-2.0469,-2.0488,-2.0489,-2.0489,-2.0489,0,-2.0138,-2.0146,-2.0173,-2.0203,-2.0225,-2.0249,-2.0273,-2.0286,-2.0307,-2.0327,-2.0357,-2.0376,-2.0413,-2.0442,-2.0471,-2.0486,-2.0491,-2.0493,-2.0498,-2.0494,-2.0486,-2.0489,-2.0445,-2.0491,-2.0491,-2.0491,-2.0491,-2.0491,-2.0161,-2.0181,-2.0208,-2.0237,-2.0257,-2.0279,-2.03,-2.0317,-2.0343,-2.0375,-2.0383,-2.0414,-2.0439,-2.0478,-2.0494,-2.0518,-2.0515,-2.0523,-2.0525,-2.0526,-2.0526,-2.0483,-2.0523,-2.0523,-2.0523,-2.0523,-2.0523,0,-2.0196,-2.0214,-2.0241,-2.0274,-2.0296,-2.03,-2.0326,-2.0344,-2.0372,-2.0395,-2.0419,-2.0453,-2.0481,-2.0502,-2.053,-2.0545,-2.0547,-2.0552,-2.055,-2.0553,-2.0527,-2.052,-2.0549,-2.0549,-2.0549,-2.0549,-2.0549,-2.0549,-2.0217,-2.0251,-2.0262,-2.0306,-2.0323,-2.0354,-2.0369,-2.0389,-2.0407,-2.0445,-2.0468,-2.0482,-2.0504,-2.0534,-2.0559,-2.0564,-2.0574,-2.0577,-2.0583,-2.0558,-2.0555,-2.0553,-2.0545,-2.058,-2.058,-2.0607,-2.0607,-2.0607]}]]